Flag for Nepal Weather past 2 weeks in Pokhara, Nepal

Now
70 °F

Fog.


Feels Like: 70 °F
Forecast: 64 / 78 °F
Wind: 2 mph from North

Location: Kathmandu Airport

Current Time: Jul 7, 2015 at 8:34:06 AM

Latest Report: Jul 7, 2015 at 7:35 AM


Visibility: 2 mi

Pressure: 29.80 "Hg (27.01 "Hg at 847m altitude)

Humidity: 94%

Dew point: 68 °F

Location of PokharaLocation

Historic Weather in Pokhara — Graph

°F

Pokhara temperature yesterday

Maximum temperature yesterday: 81 °F (at 12:35 PM)
Minimum temperature yesterday: 68 °F (at 3:35 PM)
Average temperature yesterday: 72 °F

Past Weeks' High & Low Weather Summary

 TemperatureHumidityPressure
High86 °F (Jun 30, 3:35 PM)100% (Jun 25, 6:35 AM)30.01 "Hg (Jun 25, 6:35 AM)
Low68 °F (Jun 25, 6:35 AM)58% (Jun 22, 11:35 AM)29.62 "Hg (Jun 23, 3:35 PM)
Average75 °F84%29.78 "Hg
* Reported Jun 22 6:35 AM — Jul 7 6:35 AM, Pokhara, Weather by CustomWeather, © 2015

Note: Actual official high and low records may vary slightly from our data, if they occured in-between our weather recording intervals... More about our weather records

Advertising

Pokhara weather history for previous 24 hours

 ConditionsComfort  
Time TempWeatherWind HumidityBarometerVisibility
6:35 AM
Tue, Jul 7
70 °FFog.2 mph94%29.80 "Hg2 mi
5:35 AM68 °FFog.No wind100%29.77 "Hg2 mi
4:35 AM68 °FMostly cloudy.No wind100%29.77 "Hg4 mi
3:35 AM68 °FMostly cloudy.No wind100%29.77 "Hg4 mi
2:35 AM68 °FMild.No wind100%29.80 "HgN/A
12:35 AM68 °FPartly cloudy.No wind100%29.83 "Hg4 mi
11:35 PM
Mon, Jul 6
70 °FPartly cloudy.2 mph94%29.83 "Hg4 mi
10:35 PM70 °FPartly cloudy.2 mph94%29.86 "Hg4 mi
9:35 PM70 °FPartly cloudy.2 mph94%29.83 "Hg4 mi
8:35 PM70 °FMostly cloudy.No wind94%29.83 "Hg4 mi
7:35 PM70 °FLight rain. More clouds than sun.No wind94%29.80 "Hg4 mi
6:35 PM70 °FLight rain. Broken clouds.No wind94%29.77 "Hg4 mi
5:35 PM70 °FRain. More clouds than sun.No wind94%29.77 "Hg4 mi
4:35 PM68 °FThunderstorms. More clouds than sun.3 mph100%29.77 "Hg3 mi
3:35 PM68 °FThunderstorms. More clouds than sun.No wind100%29.77 "Hg2 mi
2:35 PM70 °FMild.9 mph94%29.74 "Hg2 mi
1:35 PM81 °FBroken clouds.7 mph74%29.77 "Hg4 mi
12:35 PM81 °FBroken clouds.6 mph70%29.80 "Hg4 mi
11:35 AM79 °FFog.No wind74%29.80 "Hg3 mi
10:35 AM79 °FFog.No wind74%29.83 "Hg3 mi
9:35 AM73 °FFog.No wind89%29.83 "Hg2 mi
8:35 AM72 °FFog.No wind94%29.83 "Hg2 mi
Weather by CustomWeather, © 2015

See weather overviewHow to use our weather pages